Atmospheric History
12/06/2017 18:48  to  12/7/2017 18:48
Change End Date:
To complete the export process:
1) Select all of the data below
2) Copy the data to the clipboard
3) Open a word processor such as Notepad
4) Paste the data into the word processor
5) Save the file

Date/Time (MDT), AirTemp, RH, Dewpoint ,AvgWindSpeed, GustWindSpeed, WindDirection, PrecipType, PrecipIntensity, PrecipAccumulation, PrecipRate
12/07/2017 18:38, 39, 41, 18 ,17, 27, W, None, None, ,  
12/07/2017 18:37, 39, 41, 18 ,18, 27, NW, None, None, ,  
12/07/2017 18:28, 39, 41, 18 ,17, 27, NW, None, None, ,  
12/07/2017 18:22, 40, 41, 18 ,17, 28, NW, None, None, ,  
12/07/2017 18:18, 40, 41, 18 ,16, 28, NW, None, None, ,  
12/07/2017 18:08, 40, 39, 18 ,12, 26, NW, None, None, ,  
12/07/2017 18:07, 40, 39, 17 ,15, 26, NW, None, None, ,  
12/07/2017 17:58, 40, 39, 18 ,13, 26, NW, None, None, ,  
12/07/2017 17:52, 40, 40, 18 ,14, 25, NW, None, None, ,  
12/07/2017 17:48, 40, 39, 17 ,18, 25, NW, None, None, ,  
12/07/2017 17:38, 40, 39, 17 ,14, 26, NW, None, None, ,  
12/07/2017 17:37, 40, 39, 17 ,14, 26, NW, None, None, ,  
12/07/2017 17:28, 40, 40, 17 ,17, 27, NW, None, None, ,  
12/07/2017 17:22, 40, 40, 17 ,17, 27, NW, None, None, ,  
12/07/2017 17:18, 40, 40, 18 ,12, 25, NW, None, None, ,  
12/07/2017 17:07, 40, 41, 18 ,14, 28, NW, None, None, ,  
12/07/2017 17:07, 39, 42, 18 ,15, 28, NW, None, None, ,  
12/07/2017 16:57, 39, 43, 19 ,12, 24, NW, None, None, ,  
12/07/2017 16:52, 39, 43, 19 ,12, 27, NW, None, None, ,  
12/07/2017 16:47, 39, 44, 19 ,16, 27, NW, None, None, ,  
12/07/2017 16:37, 39, 45, 20 ,16, 22, W, None, None, ,  
12/07/2017 16:37, 39, 45, 20 ,15, 22, W, None, None, ,  
12/07/2017 16:27, 39, 46, 20 ,14, 22, NW, None, None, ,  
12/07/2017 16:22, 39, 47, 20 ,14, 22, W, None, None, ,  
12/07/2017 16:17, 39, 47, 20 ,12, 22, NW, None, None, ,  
12/07/2017 16:07, 39, 47, 20 ,14, 22, W, None, None, ,  
12/07/2017 16:07, 39, 47, 21 ,15, 22, W, None, None, ,  
12/07/2017 15:57, 39, 47, 21 ,16, 25, W, None, None, ,  
12/07/2017 15:52, 39, 47, 20 ,16, 23, W, None, None, ,  
12/07/2017 15:47, 39, 46, 20 ,17, 24, W, None, None, ,  
12/07/2017 15:37, 39, 47, 21 ,16, 25, W, None, None, ,  
12/07/2017 15:37, 39, 47, 21 ,16, 25, W, None, None, ,  
12/07/2017 15:27, 39, 48, 21 ,15, 28, W, None, None, ,  
12/07/2017 15:22, 39, 47, 21 ,19, 28, W, None, None, ,  
12/07/2017 15:17, 39, 47, 21 ,14, 25, NW, None, None, ,  
12/07/2017 15:07, 39, 46, 20 ,17, 24, W, None, None, ,  
12/07/2017 15:07, 39, 46, 20 ,17, 24, W, None, None, ,  
12/07/2017 14:57, 39, 45, 20 ,14, 24, W, None, None, ,  
12/07/2017 14:52, 39, 46, 20 ,16, 23, W, None, None, ,  
12/07/2017 14:47, 39, 45, 20 ,18, 23, W, None, None, ,  
12/07/2017 14:37, 38, 47, 20 ,16, 23, W, None, None, ,  
12/07/2017 14:37, 38, 47, 20 ,16, 23, W, None, None, ,  
12/07/2017 14:26, 38, 48, 20 ,15, 24, W, None, None, ,  
12/07/2017 14:22, 38, 46, 19 ,17, 24, W, None, None, ,  
12/07/2017 14:16, 38, 46, 19 ,16, 24, W, None, None, ,  
12/07/2017 14:07, 38, 46, 19 ,15, 23, W, None, None, ,  
12/07/2017 14:06, 38, 46, 19 ,15, 23, W, None, None, ,  
12/07/2017 13:56, 38, 46, 19 ,16, 27, W, None, None, ,  
12/07/2017 13:52, 38, 47, 20 ,19, 27, W, None, None, ,  
12/07/2017 13:46, 38, 47, 20 ,15, 21, W, None, None, ,  
12/07/2017 13:37, 38, 46, 19 ,17, 25, W, None, None, ,  
12/07/2017 13:36, 38, 46, 19 ,16, 25, W, None, None, ,  
12/07/2017 13:26, 38, 45, 19 ,16, 24, W, None, None, ,  
12/07/2017 13:22, 37, 46, 19 ,16, 25, W, None, None, ,  
12/07/2017 13:16, 37, 46, 19 ,17, 25, W, None, None, ,  
12/07/2017 13:07, 37, 46, 19 ,14, 29, NW, None, None, ,  
12/07/2017 13:06, 37, 46, 19 ,13, 29, W, None, None, ,  
12/07/2017 12:56, 37, 46, 18 ,16, 31, NW, None, None, ,  
12/07/2017 12:52, 37, 46, 18 ,14, 31, W, None, None, ,  
12/07/2017 12:46, 37, 46, 18 ,15, 26, NW, None, None, ,  
12/07/2017 12:37, 37, 46, 18 ,14, 28, NW, None, None, ,  
12/07/2017 12:36, 37, 46, 18 ,14, 28, NW, None, None, ,  
12/07/2017 12:26, 37, 47, 18 ,13, 27, NW, None, None, ,  
12/07/2017 12:22, 37, 46, 18 ,16, 28, NW, None, None, ,  
12/07/2017 12:16, 37, 46, 18 ,14, 30, NW, None, None, ,  
12/07/2017 12:07, 36, 47, 18 ,17, 26, NW, None, None, ,  
12/07/2017 12:06, 36, 48, 18 ,16, 26, NW, None, None, ,  
12/07/2017 11:56, 36, 48, 19 ,9, 22, NW, None, None, ,  
12/07/2017 11:52, 37, 47, 19 ,15, 24, NW, None, None, ,  
12/07/2017 11:46, 36, 48, 19 ,16, 24, NW, None, None, ,  
12/07/2017 11:37, 36, 48, 19 ,14, 25, NW, None, None, ,  
12/07/2017 11:35, 36, 48, 18 ,14, 25, NW, None, None, ,  
12/07/2017 11:25, 36, 50, 19 ,12, 22, W, None, None, ,  
12/07/2017 11:22, 35, 50, 19 ,12, 22, NW, None, None, ,  
12/07/2017 11:15, 35, 50, 19 ,13, 22, W, None, None, ,  
12/07/2017 11:07, 35, 52, 19 ,13, 20, NW, None, None, ,  
12/07/2017 11:05, 35, 51, 19 ,12, 20, W, None, None, ,  
12/07/2017 10:55, 35, 52, 19 ,14, 21, NW, None, None, ,  
12/07/2017 10:52, 34, 53, 19 ,14, 24, NW, None, None, ,  
12/07/2017 10:45, 34, 52, 19 ,14, 24, W, None, None, ,  
12/07/2017 10:37, 34, 52, 18 ,15, 24, W, None, None, ,  
12/07/2017 10:35, 34, 53, 19 ,14, 24, W, None, None, ,  
12/07/2017 10:25, 33, 53, 19 ,12, 19, W, None, None, ,  
12/07/2017 10:22, 33, 53, 18 ,14, 20, W, None, None, ,  
12/07/2017 10:15, 32, 56, 19 ,14, 24, W, None, None, ,  
12/07/2017 10:07, 32, 57, 18 ,14, 19, W, None, None, ,  
12/07/2017 10:05, 31, 57, 18 ,15, 20, W, None, None, ,  
12/07/2017 09:55, 31, 58, 18 ,16, 24, W, None, None, ,  
12/07/2017 09:52, 31, 58, 18 ,17, 22, W, None, None, ,  
12/07/2017 09:45, 30, 61, 18 ,15, 21, W, None, None, ,  
12/07/2017 09:37, 30, 61, 18 ,15, 24, W, None, None, ,  
12/07/2017 09:35, 30, 60, 18 ,16, 24, W, None, None, ,  
12/07/2017 09:25, 29, 63, 18 ,17, 20, W, None, None, ,  
12/07/2017 09:22, 28, 64, 18 ,16, 22, W, None, None, ,  
12/07/2017 09:15, 28, 64, 18 ,17, 23, W, None, None, ,  
12/07/2017 09:07, 28, 66, 18 ,15, 20, W, None, None, ,  
12/07/2017 09:05, 28, 65, 18 ,14, 20, W, None, None, ,  
12/07/2017 08:55, 28, 65, 17 ,17, 22, W, None, None, ,  
12/07/2017 08:52, 27, 65, 17 ,16, 22, W, None, None, ,  
12/07/2017 08:45, 27, 67, 17 ,15, 20, W, None, None, ,  
12/07/2017 08:37, 27, 66, 17 ,15, 21, W, None, None, ,  
12/07/2017 08:34, 27, 67, 17 ,16, 21, W, None, None, ,  
12/07/2017 08:24, 26, 69, 17 ,14, 20, W, None, None, ,  
12/07/2017 08:22, 26, 69, 17 ,15, 20, W, None, None, ,  
12/07/2017 08:14, 26, 68, 17 ,14, 19, W, None, None, ,  
12/07/2017 08:07, 25, 69, 17 ,15, 20, W, None, None, ,  
12/07/2017 08:04, 25, 69, 17 ,15, 20, W, None, None, ,  
12/07/2017 07:54, 25, 67, 16 ,13, 19, W, None, None, ,  
12/07/2017 07:52, 26, 67, 16 ,13, 19, W, None, None, ,  
12/07/2017 07:44, 25, 68, 16 ,14, 19, W, None, None, ,  
12/07/2017 07:37, 25, 69, 16 ,14, 19, W, None, None, ,  
12/07/2017 07:34, 25, 68, 16 ,14, 21, W, None, None, ,  
12/07/2017 07:24, 25, 68, 16 ,16, 20, W, None, None, ,  
12/07/2017 07:22, 25, 68, 16 ,15, 20, W, None, None, ,  
12/07/2017 07:14, 25, 67, 16 ,15, 20, W, None, None, ,  
12/07/2017 07:07, 26, 64, 16 ,14, 19, W, None, None, ,  
12/07/2017 07:04, 26, 65, 16 ,15, 19, W, None, None, ,  
12/07/2017 06:54, 26, 63, 16 ,16, 22, W, None, None, ,  
12/07/2017 06:52, 27, 62, 16 ,15, 22, W, None, None, ,  
12/07/2017 06:44, 27, 62, 15 ,12, 18, W, None, None, ,  
12/07/2017 06:37, 26, 63, 15 ,13, 17, W, None, None, ,  
12/07/2017 06:34, 26, 62, 15 ,12, 16, W, None, None, ,  
12/07/2017 06:24, 26, 62, 15 ,12, 19, W, None, None, ,  
12/07/2017 06:22, 26, 62, 15 ,14, 19, W, None, None, ,  
12/07/2017 06:14, 26, 63, 15 ,11, 19, W, None, None, ,  
12/07/2017 06:07, 26, 62, 15 ,13, 17, W, None, None, ,  
12/07/2017 06:04, 26, 63, 15 ,12, 17, W, None, None, ,  
12/07/2017 05:54, 25, 64, 15 ,11, 14, W, None, None, ,  
12/07/2017 05:52, 25, 63, 15 ,10, 15, W, None, None, ,  
12/07/2017 05:44, 26, 62, 15 ,11, 15, W, None, None, ,  
12/07/2017 05:37, 25, 63, 14 ,10, 15, W, None, None, ,  
12/07/2017 05:34, 25, 63, 14 ,11, 16, W, None, None, ,  
12/07/2017 05:24, 24, 65, 14 ,11, 14, W, None, None, ,  
12/07/2017 05:22, 24, 64, 14 ,9, 14, W, None, None, ,  
12/07/2017 05:14, 25, 63, 14 ,10, 15, W, None, None, ,  
12/07/2017 05:07, 25, 63, 14 ,10, 15, W, None, None, ,  
12/07/2017 05:04, 25, 63, 14 ,10, 15, W, None, None, ,  
12/07/2017 04:53, 25, 63, 14 ,11, 15, W, None, None, ,  
12/07/2017 04:52, 24, 64, 14 ,11, 14, W, None, None, ,  
12/07/2017 04:43, 25, 63, 14 ,10, 13, W, None, None, ,  
12/07/2017 04:37, 24, 63, 14 ,10, 14, W, None, None, ,  
12/07/2017 04:33, 24, 64, 14 ,11, 14, W, None, None, ,  
12/07/2017 04:23, 24, 63, 14 ,9, 13, W, None, None, ,  
12/07/2017 04:22, 24, 64, 14 ,11, 13, W, None, None, ,  
12/07/2017 04:13, 24, 64, 14 ,9, 12, W, None, None, ,  
12/07/2017 04:07, 24, 64, 14 ,9, 12, W, None, None, ,  
12/07/2017 04:03, 25, 63, 14 ,10, 12, W, None, None, ,  
12/07/2017 03:53, 25, 63, 14 ,9, 13, W, None, None, ,  
12/07/2017 03:52, 25, 63, 14 ,10, 13, W, None, None, ,  
12/07/2017 03:43, 25, 60, 13 ,8, 11, W, None, None, ,  
12/07/2017 03:37, 26, 57, 13 ,8, 11, W, None, None, ,  
12/07/2017 03:33, 26, 56, 13 ,6, 9, W, None, None, ,  
12/07/2017 03:23, 26, 56, 12 ,7, 10, W, None, None, ,  
12/07/2017 03:22, 26, 56, 12 ,7, 10, W, None, None, ,  
12/07/2017 03:13, 25, 61, 13 ,7, 11, W, None, None, ,  
12/07/2017 03:07, 24, 63, 14 ,8, 12, W, None, None, ,  
12/07/2017 03:03, 24, 63, 14 ,11, 14, W, None, None, ,  
12/07/2017 02:53, 25, 61, 13 ,11, 15, W, None, None, ,  
12/07/2017 02:52, 24, 61, 13 ,11, 15, W, None, None, ,  
12/07/2017 02:43, 25, 57, 12 ,10, 12, W, None, None, ,  
12/07/2017 02:37, 25, 59, 13 ,9, 14, W, None, None, ,  
12/07/2017 02:33, 25, 59, 13 ,10, 14, W, None, None, ,  
12/07/2017 02:23, 24, 64, 13 ,11, 13, W, None, None, ,  
12/07/2017 02:22, 24, 64, 13 ,11, 13, W, None, None, ,  
12/07/2017 02:13, 23, 66, 14 ,10, 12, W, None, None, ,  
12/07/2017 02:07, 23, 66, 14 ,10, 13, W, None, None, ,  
12/07/2017 02:02, 24, 65, 13 ,10, 14, W, None, None, ,  
12/07/2017 01:52, 23, 65, 13 ,10, 13, W, None, None, ,  
12/07/2017 01:52, 23, 66, 13 ,11, 13, W, None, None, ,  
12/07/2017 01:42, 22, 72, 14 ,9, 12, W, None, None, ,  
12/07/2017 01:37, 22, 70, 14 ,9, 13, W, None, None, ,  
12/07/2017 01:32, 22, 71, 14 ,10, 13, W, None, None, ,  
12/07/2017 01:22, 22, 69, 14 ,10, 12, W, None, None, ,  
12/07/2017 01:22, 22, 68, 14 ,10, 12, W, None, None, ,  
12/07/2017 01:12, 23, 65, 13 ,9, 10, W, None, None, ,  
12/07/2017 01:07, 24, 61, 13 ,7, 10, W, None, None, ,  
12/07/2017 01:02, 24, 63, 13 ,6, 13, W, None, None, ,  
12/07/2017 00:52, 24, 63, 13 ,7, 12, NW, None, None, ,  
12/07/2017 00:52, 24, 63, 13 ,8, 12, NW, None, None, ,  
12/07/2017 00:42, 24, 64, 13 ,8, 12, NW, None, None, ,  
12/07/2017 00:37, 24, 63, 13 ,9, 12, NW, None, None, ,  
12/07/2017 00:32, 24, 64, 13 ,9, 14, NW, None, None, ,  
12/07/2017 00:22, 23, 65, 13 ,9, 14, NW, None, None, ,  
12/07/2017 00:22, 23, 65, 13 ,8, 14, NW, None, None, ,  
12/07/2017 00:12, 23, 65, 13 ,9, 14, NW, None, None, ,  
12/07/2017 00:07, 23, 65, 13 ,9, 14, NW, None, None, ,  
12/07/2017 00:02, 23, 65, 14 ,9, 14, NW, None, None, ,  
12/06/2017 23:52, 23, 67, 14 ,7, 12, NW, None, None, ,  
12/06/2017 23:52, 23, 67, 14 ,7, 12, NW, None, None, ,  
12/06/2017 23:42, 23, 67, 14 ,9, 13, NW, None, None, ,  
12/06/2017 23:37, 23, 67, 13 ,8, 13, NW, None, None, ,  
12/06/2017 23:32, 22, 69, 14 ,7, 12, NW, None, None, ,  
12/06/2017 23:22, 22, 72, 14 ,9, 12, W, None, None, ,  
12/06/2017 23:22, 22, 72, 14 ,9, 12, W, None, None, ,  
12/06/2017 23:12, 21, 74, 14 ,9, 12, W, None, None, ,  
12/06/2017 23:07, 21, 74, 14 ,8, 11, W, None, None, ,  
12/06/2017 23:01, 21, 76, 15 ,9, 14, W, None, None, ,  
12/06/2017 22:52, 21, 76, 15 ,10, 13, W, None, None, ,  
12/06/2017 22:51, 21, 76, 15 ,11, 13, W, None, None, ,  
12/06/2017 22:41, 22, 72, 14 ,7, 11, W, None, None, ,  
12/06/2017 22:37, 22, 72, 15 ,7, 11, NW, None, None, ,  
12/06/2017 22:31, 22, 74, 15 ,7, 12, W, None, None, ,  
12/06/2017 22:22, 21, 77, 15 ,9, 11, W, None, None, ,  
12/06/2017 22:21, 21, 77, 15 ,9, 11, W, None, None, ,  
12/06/2017 22:11, 21, 77, 15 ,9, 12, W, None, None, ,  
12/06/2017 22:07, 20, 78, 15 ,8, 11, W, None, None, ,  
12/06/2017 22:01, 20, 79, 15 ,9, 12, W, None, None, ,  
12/06/2017 21:52, 20, 80, 15 ,9, 12, W, None, None, ,  
12/06/2017 21:51, 20, 80, 15 ,8, 12, W, None, None, ,  
12/06/2017 21:41, 20, 81, 15 ,9, 12, W, None, None, ,  
12/06/2017 21:37, 20, 79, 15 ,9, 12, W, None, None, ,  
12/06/2017 21:31, 20, 79, 15 ,8, 11, W, None, None, ,  
12/06/2017 21:22, 21, 78, 15 ,9, 10, W, None, None, ,  
12/06/2017 21:21, 21, 77, 15 ,8, 10, W, None, None, ,  
12/06/2017 21:11, 21, 77, 15 ,7, 11, W, None, None, ,  
12/06/2017 21:07, 21, 76, 15 ,7, 11, W, None, None, ,  
12/06/2017 21:01, 21, 76, 15 ,6, 11, NW, None, None, ,  
12/06/2017 20:52, 21, 77, 15 ,7, 11, W, None, None, ,  
12/06/2017 20:51, 21, 77, 15 ,7, 11, W, None, None, ,  
12/06/2017 20:41, 20, 79, 15 ,5, 9, NW, None, None, ,  
12/06/2017 20:37, 20, 80, 15 ,6, 9, NW, None, None, ,  
12/06/2017 20:31, 21, 79, 15 ,6, 10, NW, None, None, ,  
12/06/2017 20:22, 21, 79, 15 ,6, 10, NW, None, None, ,  
12/06/2017 20:20, 21, 79, 15 ,6, 9, NW, None, None, ,  
12/06/2017 20:10, 20, 80, 15 ,6, 10, NW, None, None, ,  
12/06/2017 20:07, 20, 82, 16 ,7, 10, NW, None, None, ,  
12/06/2017 20:00, 20, 82, 16 ,6, 12, NW, None, None, ,  
12/06/2017 19:52, 20, 83, 16 ,7, 12, NW, None, None, ,  
12/06/2017 19:50, 20, 83, 16 ,7, 12, NW, None, None, ,  
12/06/2017 19:40, 19, 85, 16 ,7, 12, NW, None, None, ,  
12/06/2017 19:37, 19, 85, 16 ,6, 12, NW, None, None, ,  
12/06/2017 19:30, 19, 85, 16 ,6, 12, NW, None, None, ,  
12/06/2017 19:22, 19, 86, 16 ,6, 10, NW, None, None, ,  
12/06/2017 19:20, 19, 86, 16 ,7, 10, NW, None, None, ,  
12/06/2017 19:10, 19, 88, 17 ,9, 12, W, None, None, ,  
12/06/2017 19:07, 19, 89, 17 ,7, 11, W, None, None, ,  
12/06/2017 19:00, 19, 93, 18 ,9, 12, NW, None, None, ,  
12/06/2017 18:52, 19, 97, 18 ,9, 13, W, None, None, ,  
12/06/2017 18:50, 19, 96, 18 ,7, 13, W, None, None, ,  
Change End Date:

Copyright © 1998-2015 Vaisala, Inc.
All Rights Reserved
Send comments about the data to:
SCAN Web ® is a registered trademark of Vaisala, Inc.
SCAN Web Version 6.0